| time (UTC) | temp F | wind direction | speed MPH | gust MPH | rain 1hr in | rain 24hr in | rain mn in | humidity % | barometer mb |
| 20260831110030 | 0 | 0.0 | 0.0 | 0.00 | 0.00 | 0.00 | 1012.3 | ||
| 20260831104525 | 0 | 0.0 | 0.0 | 0.00 | 0.00 | 0.00 | 1012.3 | ||
| 20260831103017 | 0 | 0.0 | 0.0 | 0.00 | 0.00 | 0.00 | 1012.3 | ||
| 20260831101512 | 0 | 0.0 | 0.0 | 0.00 | 0.00 | 0.00 | 1012.3 | ||
| 20260831100008 | 0 | 0.0 | 0.0 | 0.00 | 0.00 | 0.00 | 1012.5 | ||
| 20260831094508 | 58 | 76 | 10.0 | 14.0 | 0.00 | 0.00 | 0.00 | 47 | 1012.6 |
| 20260831093003 | 57 | 89 | 10.0 | 13.0 | 0.00 | 0.00 | 0.00 | 49 | 1012.7 |
| 20260831091610 | 58 | 96 | 12.0 | 16.0 | 0.00 | 0.00 | 0.00 | 48 | 1012.8 |
| 20260831090058 | 58 | 86 | 11.0 | 13.0 | 0.00 | 0.00 | 0.00 | 49 | 1013.0 |
| 20260831084555 | 58 | 84 | 12.0 | 16.0 | 0.00 | 0.00 | 0.00 | 48 | 1013.0 |
| 20260831083053 | 58 | 77 | 11.0 | 15.0 | 0.00 | 0.00 | 0.00 | 48 | 1013.1 |
| 20260831081552 | 58 | 82 | 11.0 | 14.0 | 0.00 | 0.00 | 0.00 | 49 | 1013.2 |
| 20260831080051 | 58 | 84 | 10.0 | 12.0 | 0.00 | 0.00 | 0.00 | 49 | 1013.2 |
| 20260831074550 | 58 | 79 | 10.0 | 13.0 | 0.00 | 0.00 | 0.00 | 49 | 1013.3 |
| 20260831073047 | 58 | 96 | 8.0 | 10.0 | 0.00 | 0.00 | 0.00 | 49 | 1013.3 |
| 20260831071544 | 59 | 95 | 8.0 | 11.0 | 0.00 | 0.00 | 0.00 | 49 | 1013.4 |
| 20260831070041 | 58 | 79 | 8.0 | 12.0 | 0.00 | 0.00 | 0.00 | 50 | 1013.4 |
| 20260831064541 | 59 | 88 | 9.0 | 12.0 | 0.00 | 0.00 | 0.00 | 49 | 1013.3 |
| 20260831063040 | 58 | 110 | 5.0 | 8.0 | 0.00 | 0.00 | 0.00 | 52 | 1013.4 |
| 20260831061539 | 59 | 141 | 2.0 | 10.0 | 0.00 | 0.00 | 0.00 | 50 | 1013.4 |
| 20260831060037 | 61 | 85 | 9.0 | 11.0 | 0.00 | 0.00 | 0.00 | 47 | 1013.3 |
| 20260831054539 | 61 | 82 | 7.0 | 11.0 | 0.00 | 0.00 | 0.00 | 46 | 1013.4 |
| 20260831053039 | 60 | 100 | 8.0 | 9.0 | 0.00 | 0.00 | 0.00 | 49 | 1013.4 |
| 20260831051537 | 58 | 82 | 4.0 | 6.0 | 0.00 | 0.00 | 0.00 | 52 | 1013.4 |
| 20260831050035 | 59 | 81 | 2.0 | 4.0 | 0.00 | 0.00 | 0.00 | 51 | 1013.4 |
| 20260831044534 | 60 | 93 | 6.0 | 8.0 | 0.00 | 0.00 | 0.00 | 49 | 1013.5 |
| 20260831043033 | 60 | 91 | 4.0 | 6.0 | 0.00 | 0.00 | 0.00 | 50 | 1013.6 |
| 20260831041614 | 62 | 79 | 5.0 | 5.0 | 0.00 | 0.00 | 0.00 | 46 | 1013.6 |
| 20260831040033 | 62 | 89 | 4.0 | 5.0 | 0.00 | 0.00 | 0.00 | 44 | 1013.6 |
| 20260831034532 | 63 | 87 | 4.0 | 5.0 | 0.00 | 0.00 | 0.00 | 43 | 1013.5 |
| 20260831033031 | 63 | 96 | 4.0 | 5.0 | 0.00 | 0.00 | 0.00 | 43 | 1013.5 |
| 20260831031531 | 65 | 81 | 2.0 | 6.0 | 0.00 | 0.00 | 0.00 | 41 | 1013.4 |
| 20260831030034 | 66 | 101 | 3.0 | 5.0 | 0.00 | 0.00 | 0.00 | 38 | 1013.4 |
| 20260831024538 | 68 | 346 | 7.0 | 9.0 | 0.00 | 0.00 | 0.00 | 36 | 1013.1 |
| 20260831023027 | 69 | 321 | 6.0 | 9.0 | 0.00 | 0.00 | 0.00 | 34 | 1013.0 |
| 20260831021537 | 71 | 313 | 6.0 | 7.0 | 0.00 | 0.00 | 0.00 | 33 | 1012.9 |
| 20260831020026 | 73 | 314 | 6.0 | 8.0 | 0.00 | 0.00 | 0.00 | 32 | 1012.8 |
| 20260831014524 | 73 | 321 | 6.0 | 9.0 | 0.00 | 0.00 | 0.00 | 32 | 1012.9 |
| 20260831013024 | 74 | 327 | 8.0 | 10.0 | 0.00 | 0.00 | 0.00 | 31 | 1012.9 |
| 20260831011540 | 74 | 310 | 5.0 | 7.0 | 0.00 | 0.00 | 0.00 | 31 | 1012.9 |
| 20260831010021 | 75 | 333 | 5.0 | 8.0 | 0.00 | 0.00 | 0.00 | 30 | 1012.9 |
| 20260831004520 | 75 | 293 | 4.0 | 8.0 | 0.00 | 0.00 | 0.00 | 30 | 1013.0 |
| 20260831003019 | 75 | 300 | 5.0 | 10.0 | 0.00 | 0.00 | 0.00 | 30 | 1013.1 |
| 20260831001518 | 74 | 260 | 4.0 | 11.0 | 0.00 | 0.00 | 0.00 | 30 | 1013.2 |
| 20260831000017 | 75 | 295 | 7.0 | 11.0 | 0.00 | 0.00 | 0.00 | 29 | 1013.3 |
| 20260830234514 | 75 | 277 | 6.0 | 14.0 | 0.00 | 0.00 | 0.00 | 30 | 1013.5 |
| 20260830233021 | 75 | 245 | 2.0 | 14.0 | 0.00 | 0.00 | 0.00 | 30 | 1013.6 |
| 20260830231510 | 76 | 321 | 1.0 | 6.0 | 0.00 | 0.00 | 0.00 | 29 | 1013.6 |
| 20260830230007 | 74 | 242 | 4.0 | 11.0 | 0.00 | 0.00 | 0.00 | 30 | 1013.9 |
| 20260830224504 | 74 | 300 | 9.0 | 16.0 | 0.00 | 0.00 | 0.00 | 30 | 1014.0 |
| 20260830223002 | 74 | 26 | 1.0 | 6.0 | 0.00 | 0.00 | 0.00 | 31 | 1014.1 |
| 20260830221600 | 73 | 77 | 3.0 | 7.0 | 0.00 | 0.00 | 0.00 | 32 | 1014.3 |
| 20260830220055 | 73 | 256 | 4.0 | 14.0 | 0.00 | 0.00 | 0.00 | 32 | 1014.6 |
| 20260830214552 | 72 | 295 | 3.0 | 12.0 | 0.00 | 0.00 | 0.00 | 33 | 1014.8 |
| 20260830213050 | 71 | 221 | 3.0 | 13.0 | 0.00 | 0.00 | 0.00 | 34 | 1014.9 |
| 20260830211548 | 70 | 304 | 9.0 | 18.0 | 0.00 | 0.00 | 0.00 | 35 | 1015.0 |
| 20260830210046 | 71 | 266 | 11.0 | 16.0 | 0.00 | 0.00 | 0.00 | 35 | 1015.2 |
| 20260830204543 | 70 | 297 | 5.0 | 11.0 | 0.00 | 0.00 | 0.00 | 35 | 1015.4 |
| 20260830203041 | 69 | 243 | 7.0 | 16.0 | 0.00 | 0.00 | 0.00 | 37 | 1015.6 |
| 20260830201538 | 69 | 248 | 5.0 | 17.0 | 0.00 | 0.00 | 0.00 | 37 | 1015.7 |
| 20260830200036 | 69 | 217 | 10.0 | 20.0 | 0.00 | 0.00 | 0.00 | 38 | 1015.7 |
| 20260830194543 | 68 | 270 | 5.0 | 15.0 | 0.00 | 0.00 | 0.00 | 40 | 1015.9 |
| 20260830193038 | 68 | 281 | 11.0 | 16.0 | 0.00 | 0.00 | 0.00 | 39 | 1016.2 |
| 20260830191532 | 67 | 331 | 4.0 | 14.0 | 0.00 | 0.00 | 0.00 | 40 | 1016.3 |
| 20260830190030 | 66 | 250 | 9.0 | 13.0 | 0.00 | 0.00 | 0.00 | 40 | 1016.5 |
| 20260830184533 | 66 | 239 | 3.0 | 14.0 | 0.00 | 0.00 | 0.00 | 42 | 1016.7 |
| 20260830183027 | 65 | 286 | 7.0 | 12.0 | 0.00 | 0.00 | 0.00 | 43 | 1017.0 |
| 20260830181525 | 65 | 293 | 9.0 | 14.0 | 0.00 | 0.00 | 0.00 | 44 | 1016.9 |
| 20260830180023 | 64 | 281 | 4.0 | 9.0 | 0.00 | 0.00 | 0.00 | 45 | 1017.0 |
| 20260830174523 | 64 | 278 | 3.0 | 6.0 | 0.00 | 0.00 | 0.00 | 44 | 1017.2 |
| 20260830173020 | 63 | 285 | 3.0 | 5.0 | 0.00 | 0.00 | 0.00 | 46 | 1017.5 |
| 20260830171517 | 63 | 224 | 1.0 | 6.0 | 0.00 | 0.00 | 0.00 | 48 | 1017.5 |
| 20260830170016 | 61 | 277 | 5.0 | 12.0 | 0.00 | 0.00 | 0.00 | 50 | 1017.8 |
| 20260830164512 | 61 | 304 | 4.0 | 6.0 | 0.00 | 0.00 | 0.00 | 51 | 1017.8 |
| 20260830163012 | 60 | 267 | 5.0 | 7.0 | 0.00 | 0.00 | 0.00 | 51 | 1017.8 |
| 20260830161509 | 60 | 255 | 2.0 | 5.0 | 0.00 | 0.00 | 0.00 | 52 | 1017.8 |
| 20260830160007 | 59 | 206 | 1.0 | 5.0 | 0.00 | 0.00 | 0.00 | 53 | 1017.8 |
| 20260830154507 | 59 | 237 | 3.0 | 10.0 | 0.00 | 0.00 | 0.00 | 51 | 1017.9 |
| 20260830153003 | 58 | 121 | 3.0 | 4.0 | 0.00 | 0.00 | 0.00 | 55 | 1017.9 |
| 20260830151610 | 57 | 129 | 2.0 | 4.0 | 0.00 | 0.00 | 0.00 | 58 | 1017.9 |
| 20260830150104 | 55 | 98 | 3.0 | 5.0 | 0.00 | 0.00 | 0.00 | 60 | 1017.8 |
| 20260830144558 | 54 | 83 | 3.0 | 4.0 | 0.00 | 0.00 | 0.00 | 63 | 1017.7 |
| 20260830143059 | 52 | 96 | 3.0 | 4.0 | 0.00 | 0.00 | 0.00 | 65 | 1017.7 |
| 20260830141558 | 52 | 101 | 2.0 | 4.0 | 0.00 | 0.00 | 0.00 | 66 | 1017.6 |
| 20260830140053 | 51 | 83 | 4.0 | 8.0 | 0.00 | 0.00 | 0.00 | 67 | 1017.4 |
| 20260830134551 | 0 | 0.0 | 0.0 | 0.00 | 0.00 | 0.00 | 1017.3 | ||
| 20260830133049 | 0 | 0.0 | 0.0 | 0.00 | 0.00 | 0.00 | 1017.3 | ||
| 20260830131546 | 0 | 0.0 | 0.0 | 0.00 | 0.00 | 0.00 | 1017.2 | ||
| 20260830130048 | 0 | 0.0 | 0.0 | 0.00 | 0.00 | 0.00 | 1017.0 | ||
| 20260830124532 | 0 | 0.0 | 0.0 | 0.00 | 0.00 | 0.00 | 1017.1 | ||
| 20260830123028 | 0 | 0.0 | 0.0 | 0.00 | 0.00 | 0.00 | 1017.0 | ||
| 20260830121522 | 0 | 0.0 | 0.0 | 0.00 | 0.00 | 0.00 | 1017.0 | ||
| 20260830120019 | 0 | 0.0 | 0.0 | 0.00 | 0.00 | 0.00 | 1016.9 | ||
| 20260830114519 | 0 | 0.0 | 0.0 | 0.00 | 0.00 | 0.00 | 1017.0 | ||
| 20260830113010 | 0 | 0.0 | 0.0 | 0.00 | 0.00 | 0.00 | 1016.8 | ||
| 20260830111506 | 0 | 0.0 | 0.0 | 0.00 | 0.00 | 0.00 | 1016.6 |